Wind_Speed
17 16 15 14 13 12 12 12 12 12 12 11 11 12 12 12 12 12 12 13 13 14 13 13 13 14 15 15 16 16 16 16 17 18 18 19 20 20 20 20 20 20 20
19 19 18 18 16 15 15 15 15 15 14 14 13 14 14 15 15 15 15 15 15 16 16 16 16 17 17 17 17 18 18 18 18 18 19 20 21 21 21 21 22 22 22
20 20 20 19 19 18 19 18 18 17 17 17 16 16 16 17 17 17 17 18 18 18 18 18 18 19 19 19 20 20 20 21 21 21 21 21 22 23 23 23 23 23 23
23 23 23 22 21 21 21 21 21 20 20 20 20 19 19 19 20 20 20 21 21 21 21 21 21 21 21 21 22 23 23 23 24 24 24 24 24 24 24 24 24 24 23
25 25 25 24 24 23 23 22 23 22 22 22 22 22 22 22 23 23 24 24 24 23 24 23 23 24 24 24 24 24 25 25 26 26 26 26 26 26 25 25 24 24 24
28 27 27 27 27 26 25 24 24 24 25 25 25 25 26 26 26 26 27 27 27 27 27 26 26 26 26 25 26 26 26 26 27 27 28 27 27 27 26 26 25 25 25
29 29 28 28 29 29 28 28 27 27 27 28 28 29 28 28 28 28 29 29 30 30 30 29 28 28 28 28 27 27 27 28 28 28 28 28 28 27 26 25 25 26 26
31 30 30 31 30 30 30 30 30 30 30 31 31 31 30 30 30 31 31 31 31 30 30 30 29 29 29 29 28 28 28 29 30 29 29 29 28 27 26 26 27 27 27
33 32 32 32 32 32 32 32 33 33 33 34 33 33 33 33 33 32 32 32 32 31 32 31 30 30 31 30 30 30 30 30 30 30 30 30 29 28 27 27 27 28 27
33 33 34 35 35 35 35 35 36 36 35 36 35 36 35 35 35 34 34 33 33 33 32 32 32 32 32 32 32 31 31 31 31 31 31 30 30 29 29 28 29 29 29
34 35 35 36 37 37 37 38 39 39 38 38 38 38 38 37 37 36 35 36 35 35 34 33 33 33 34 33 33 33 33 33 32 32 32 31 31 31 30 30 30 30 30
36 36 36 37 38 38 38 39 40 40 40 40 40 40 38 37 37 37 37 38 37 37 35 35 36 35 36 35 35 35 35 35 34 33 33 33 33 33 32 32 32 33 32
38 38 38 38 38 39 40 40 40 40 40 40 40 40 39 39 39 39 38 38 38 37 36 36 37 37 37 37 36 36 35 35 35 34 34 34 34 34 34 33 33 33 33
40 40 40 40 40 40 40 40 40 40 40 40 40 41 41 40 39 39 39 39 38 37 36 36 37 37 36 36 36 36 36 36 35 35 35 34 34 34 34 34 34 34 33
41 41 41 41 40 40 41 41 41 40 40 40 41 41 41 40 39 39 39 38 37 37 37 37 37 38 37 37 36 37 37 37 36 36 35 35 35 35 35 35 35 34 34
41 40 41 41 41 42 42 42 42 42 41 42 42 41 40 39 39 38 38 38 38 38 38 38 39 38 37 37 36 36 36 36 36 36 36 36 35 35 36 36 36 36 36
40 40 40 41 42 43 43 43 43 43 43 43 42 42 40 39 38 38 39 39 39 39 39 38 38 37 37 37 36 35 36 36 36 36 36 36 36 37 37 36 36 36 36
41 41 41 42 44 44 44 44 44 43 41 41 41 41 41 40 39 38 38 38 39 38 38 37 36 36 36 37 36 36 36 37 37 37 37 37 37 37 37 37 36 36 36
40 41 42 42 43 43 43 43 43 42 41 41 40 40 40 39 39 39 39 39 38 37 36 37 37 37 37 37 37 37 36 36 37 37 36 37 37 37 36 36 36 36 37
40 40 41 41 40 41 40 40 40 40 39 39 39 38 38 38 38 38 39 39 38 37 37 36 36 36 36 37 37 37 37 37 36 36 36 36 36 36 36 36 36 36 37
37 37 38 38 38 38 38 37 37 37 37 37 37 37 36 36 36 37 37 38 37 36 35 35 35 36 36 35 36 37 37 36 35 34 34 34 34 35 34 35 35 36 37
34 34 35 36 36 35 35 34 34 35 34 35 35 35 36 36 35 34 34 34 34 34 34 34 35 35 36 36 36 36 35 34 34 33 33 33 34 34 34 34 35 35 36
33 33 34 34 34 34 33 32 32 33 33 33 33 33 34 34 34 33 32 32 33 33 33 34 35 35 35 35 34 34 34 34 33 33 33 33 32 32 33 33 34 34 35
32 32 32 32 32 32 31 31 31 31 31 31 31 31 31 31 31 31 31 31 32 33 33 33 34 34 34 34 34 34 34 33 33 32 31 31 31 31 31 32 32 32 33
28 29 29 29 28 28 27 27 27 27 27 28 28 29 30 30 30 30 30 30 31 31 32 32 33 33 33 33 32 32 31 31 30 31 30 30 30 30 30 31 31 31 31
24 25 25 25 25 26 26 26 27 27 26 27 27 28 28 29 29 29 29 29 30 31 31 31 31 32 32 32 31 31 30 29 29 30 30 29 29 29 30 30 30 30 30
Wind_Direction
278 279 280 278 278 283 286 287 285 289 291 289 286 287 287 289 291 295 294 293 293 295 293 289 288 290 291 292 292 292 291 291 291 289 287 288 287 287 287 288 287 287 287
278 276 278 278 276 278 279 282 282 283 284 283 282 284 285 286 288 289 290 291 291 290 290 288 287 289 290 292 293 292 293 294 294 292 290 289 288 288 287 287 287 287 286
277 274 277 279 275 274 276 279 281 280 280 282 282 282 282 283 284 287 288 288 289 289 287 287 287 288 289 290 291 291 292 293 294 293 292 290 289 289 287 286 286 287 286
272 271 272 278 274 272 273 274 276 277 279 280 280 280 280 282 282 284 286 286 287 288 288 285 285 286 287 288 289 290 291 291 291 291 292 290 290 290 287 286 285 286 286
269 271 273 276 276 276 273 273 274 275 277 279 279 277 279 280 281 281 282 284 286 286 285 285 285 287 288 288 288 289 290 290 290 289 289 291 291 291 289 286 284 284 285
269 272 274 275 278 278 274 274 276 278 278 278 278 278 279 279 278 279 280 281 283 284 284 284 285 287 288 287 287 287 288 290 290 289 290 290 290 290 288 285 283 282 283
271 272 275 278 278 278 275 275 275 277 277 277 278 279 279 280 281 281 280 280 282 283 284 284 284 284 284 285 285 286 286 287 289 290 290 289 290 288 287 285 284 283 283
272 274 277 280 280 276 276 276 276 276 276 277 276 278 279 279 280 280 280 281 282 283 282 282 282 282 283 285 284 285 286 286 288 288 287 288 287 285 284 284 284 283 283
277 276 277 277 278 279 277 277 276 275 275 276 276 276 278 279 280 281 280 281 281 283 281 280 281 280 282 284 285 286 287 287 287 288 288 286 284 283 283 282 281 282 282
276 276 276 277 277 278 277 276 277 276 274 274 276 278 278 279 279 280 280 281 281 282 282 280 280 280 280 280 282 283 285 286 287 287 287 286 284 281 281 281 281 282 283
275 275 275 275 275 277 278 278 277 277 276 275 276 278 277 277 277 278 279 280 280 279 279 279 280 280 280 279 280 281 282 284 286 287 285 284 284 281 281 281 282 283 285
275 275 275 276 276 276 277 277 277 277 277 278 277 277 277 278 277 277 277 278 278 278 277 278 279 278 278 275 277 280 280 281 284 285 285 284 282 281 280 280 281 283 284
274 274 275 276 277 276 277 277 277 278 278 277 277 278 279 279 278 278 278 278 278 277 276 277 277 276 275 274 276 277 279 280 281 282 283 283 282 281 280 280 280 282 284
274 274 275 274 275 276 277 277 277 277 278 278 278 278 278 279 279 278 277 278 278 277 276 276 275 273 272 273 273 275 277 278 279 280 280 281 281 280 280 280 281 282 284
275 275 275 275 275 275 276 277 278 277 277 277 277 277 277 278 278 277 277 277 278 277 275 273 273 272 271 271 271 272 275 277 277 278 278 279 280 279 279 280 281 282 283
273 274 275 275 275 276 277 277 277 276 276 277 277 276 277 277 276 277 277 276 276 276 275 273 273 272 272 271 270 271 272 274 275 276 277 278 278 279 279 279 280 282 284
274 275 276 275 275 276 276 276 276 276 276 276 276 276 276 276 275 276 277 276 275 275 275 273 273 272 272 273 273 272 272 273 274 274 275 276 277 277 277 278 278 280 282
275 276 277 276 276 276 276 276 277 276 275 275 277 277 278 276 275 276 276 276 276 276 275 274 274 272 271 272 273 273 273 274 275 274 274 275 275 276 276 277 277 279 281
276 277 278 278 278 277 277 277 277 276 276 276 276 276 276 275 274 274 275 276 276 276 276 276 274 272 272 272 274 275 273 274 274 273 274 274 274 275 275 275 276 277 280
276 277 278 279 280 279 278 277 276 275 276 276 275 275 275 274 275 275 274 275 275 275 275 275 274 272 272 272 274 275 275 275 273 273 273 272 273 273 274 275 276 277 279
276 277 279 279 280 279 278 277 277 276 275 274 274 274 274 273 274 275 274 273 273 273 273 273 273 272 272 273 274 274 274 274 273 272 272 273 273 274 275 276 277 279 280
277 278 279 280 280 279 278 277 276 276 275 275 274 273 274 273 273 273 273 271 270 270 271 271 272 272 272 274 274 273 273 273 272 271 272 273 274 276 277 278 279 280 281
279 278 279 280 279 279 278 277 276 276 276 275 275 274 274 273 273 273 271 270 268 268 269 271 272 272 272 272 272 272 272 272 272 272 274 274 275 277 278 279 278 279 281
279 279 280 280 279 279 278 277 276 277 277 276 276 276 274 273 273 272 271 270 270 269 270 270 270 271 272 272 270 270 271 271 271 272 273 274 276 278 280 280 280 279 280
280 280 282 281 279 278 279 279 278 278 278 279 278 276 275 275 274 273 272 273 274 273 271 269 270 271 272 271 270 270 270 271 272 273 274 275 276 278 278 279 279 280 282
284 284 284 282 281 280 280 281 279 278 279 281 281 280 278 276 276 275 274 274 275 274 272 271 271 272 272 271 271 270 269 269 271 273 274 275 277 277 278 278 279 281 282
Height
5878 5878 5878 5877 5877 5876 5875 5874 5873 5872 5871 5871 5870 5870 5869 5868 5867 5866 5865 5864 5862 5861 5860 5859 5858 5857 5856 5855 5854 5853 5852 5851 5850 5849 5848 5846 5845 5844 5843 5842 5841 5839 5838
5873 5873 5873 5872 5872 5872 5871 5871 5870 5869 5868 5867 5867 5866 5865 5864 5864 5862 5861 5860 5858 5857 5856 5855 5854 5853 5852 5851 5850 5849 5848 5846 5845 5844 5842 5841 5840 5839 5837 5836 5835 5834 5833
5868 5868 5867 5866 5866 5866 5866 5866 5865 5864 5864 5863 5862 5861 5861 5860 5859 5858 5857 5856 5854 5853 5851 5850 5849 5848 5847 5846 5845 5844 5843 5841 5840 5839 5837 5835 5834 5832 5831 5830 5829 5828 5826
5862 5862 5861 5860 5859 5860 5860 5860 5860 5859 5858 5858 5857 5857 5856 5855 5854 5853 5852 5850 5849 5848 5846 5845 5844 5842 5841 5840 5839 5838 5837 5835 5834 5833 5831 5829 5828 5826 5824 5823 5822 5821 5820
5853 5854 5855 5854 5853 5852 5852 5853 5853 5852 5852 5852 5851 5850 5849 5848 5848 5846 5845 5844 5843 5842 5840 5839 5837 5836 5835 5834 5833 5831 5830 5829 5828 5826 5825 5823 5821 5819 5818 5816 5815 5814 5812
5846 5847 5847 5847 5846 5845 5845 5845 5846 5845 5845 5845 5844 5843 5842 5841 5841 5839 5838 5837 5836 5834 5833 5832 5831 5830 5828 5827 5826 5825 5824 5822 5821 5819 5817 5816 5814 5812 5810 5809 5808 5807 5806
5838 5838 5838 5838 5837 5837 5838 5838 5837 5837 5837 5837 5837 5835 5835 5834 5833 5832 5830 5829 5828 5827 5826 5825 5823 5822 5821 5820 5818 5817 5816 5814 5813 5812 5810 5808 5806 5804 5803 5801 5801 5799 5798
5829 5829 5830 5830 5829 5829 5829 5829 5828 5829 5828 5827 5827 5827 5826 5825 5825 5824 5822 5821 5820 5819 5818 5816 5815 5814 5813 5812 5811 5809 5808 5807 5805 5803 5801 5800 5799 5797 5795 5794 5793 5792 5790
5820 5820 5821 5821 5821 5821 5820 5820 5819 5819 5819 5818 5818 5818 5817 5816 5815 5814 5813 5812 5811 5810 5808 5808 5806 5806 5805 5804 5803 5801 5800 5799 5797 5795 5793 5792 5791 5789 5787 5786 5785 5784 5782
5811 5812 5812 5812 5812 5811 5810 5810 5809 5809 5808 5808 5808 5808 5807 5807 5806 5804 5803 5802 5801 5800 5799 5798 5797 5796 5795 5794 5793 5792 5791 5790 5788 5787 5785 5784 5782 5781 5779 5778 5777 5776 5774
5801 5802 5802 5801 5801 5800 5800 5800 5798 5798 5797 5797 5797 5797 5796 5796 5795 5794 5792 5791 5791 5790 5789 5788 5787 5786 5785 5784 5783 5782 5782 5781 5779 5778 5776 5775 5773 5772 5771 5769 5768 5767 5765
5791 5791 5791 5790 5790 5789 5789 5789 5787 5787 5786 5786 5785 5785 5785 5784 5783 5782 5781 5780 5779 5778 5778 5777 5776 5775 5774 5773 5773 5772 5771 5771 5770 5768 5767 5766 5764 5763 5761 5760 5759 5757 5756
5780 5780 5779 5779 5778 5778 5777 5776 5775 5774 5774 5773 5773 5773 5773 5772 5771 5770 5769 5768 5767 5767 5766 5766 5765 5763 5762 5762 5762 5761 5761 5760 5759 5758 5757 5756 5755 5753 5752 5750 5749 5748 5747
5768 5768 5768 5767 5767 5766 5765 5764 5763 5762 5761 5761 5761 5761 5760 5759 5758 5758 5757 5757 5755 5754 5754 5754 5753 5751 5751 5751 5751 5750 5750 5750 5749 5748 5747 5746 5744 5743 5742 5741 5740 5738 5737
5756 5756 5755 5754 5754 5753 5752 5751 5751 5750 5749 5749 5749 5748 5748 5747 5747 5746 5745 5745 5744 5743 5742 5742 5741 5740 5740 5739 5739 5739 5739 5739 5738 5737 5736 5735 5734 5733 5732 5731 5730 5728 5727
5743 5743 5742 5742 5741 5741 5740 5739 5738 5738 5737 5736 5736 5736 5736 5735 5735 5734 5733 5733 5732 5731 5730 5730 5729 5728 5728 5728 5728 5728 5727 5727 5727 5726 5726 5724 5723 5722 5722 5721 5719 5718 5717
5730 5730 5730 5729 5729 5728 5727 5726 5726 5725 5724 5723 5722 5722 5722 5722 5722 5722 5721 5720 5719 5719 5718 5718 5718 5717 5717 5716 5716 5716 5716 5716 5715 5715 5715 5714 5713 5712 5711 5710 5709 5708 5707
5718 5717 5717 5716 5715 5714 5713 5713 5712 5711 5711 5710 5710 5709 5709 5709 5709 5709 5708 5707 5707 5706 5705 5705 5706 5706 5705 5705 5704 5704 5704 5704 5704 5703 5703 5702 5702 5701 5700 5699 5698 5697 5696
5705 5704 5703 5702 5701 5700 5700 5699 5698 5698 5697 5697 5697 5697 5696 5695 5695 5696 5695 5695 5695 5695 5694 5694 5694 5694 5694 5694 5693 5693 5693 5692 5692 5692 5691 5691 5690 5689 5688 5688 5687 5686 5685
5693 5692 5690 5689 5688 5687 5686 5685 5684 5684 5684 5684 5684 5684 5683 5683 5683 5683 5683 5683 5683 5683 5683 5683 5682 5682 5682 5682 5682 5682 5682 5681 5681 5680 5680 5679 5678 5677 5677 5677 5676 5675 5674
5681 5680 5679 5677 5676 5674 5673 5672 5672 5671 5671 5672 5671 5671 5671 5671 5671 5671 5670 5670 5670 5671 5671 5671 5671 5671 5671 5671 5671 5670 5670 5669 5669 5669 5668 5667 5667 5666 5666 5666 5665 5664 5663
5669 5668 5666 5665 5663 5662 5661 5661 5660 5660 5659 5659 5659 5658 5658 5659 5659 5659 5659 5659 5659 5659 5660 5660 5660 5660 5660 5660 5659 5659 5658 5658 5658 5658 5657 5656 5656 5655 5655 5654 5653 5652 5651
5657 5656 5655 5653 5652 5651 5650 5649 5649 5648 5648 5648 5647 5647 5647 5647 5647 5647 5648 5648 5648 5648 5648 5648 5648 5648 5648 5648 5648 5647 5647 5647 5647 5646 5646 5645 5645 5644 5644 5643 5642 5641 5640
5646 5645 5644 5642 5641 5640 5639 5638 5638 5638 5637 5637 5636 5636 5636 5636 5636 5636 5637 5637 5637 5637 5637 5637 5637 5637 5637 5637 5636 5636 5636 5636 5636 5635 5635 5635 5634 5634 5633 5632 5631 5630 5629
5636 5635 5634 5632 5631 5630 5629 5629 5628 5628 5627 5627 5626 5626 5626 5626 5626 5626 5626 5626 5626 5626 5626 5626 5626 5626 5626 5625 5625 5625 5625 5625 5625 5625 5625 5625 5624 5624 5623 5622 5621 5620 5619
5628 5627 5625 5624 5622 5621 5620 5620 5619 5619 5618 5618 5617 5617 5616 5616 5616 5616 5616 5616 5616 5615 5615 5615 5615 5615 5615 5615 5615 5615 5615 5615 5615 5615 5615 5615 5614 5614 5613 5612 5611 5610 5609